Location: Ferintosh
(52.7647°N, 112.9692°W)
Time: 03:34:00
(UTC+00:00)

Explorer 7 - All Passes

Search period start: 21 May 2024 00:00
Search period end: 31 May 2024 00:00
Orbit: 467 x 625 km, 50.3° (Epoch: 20 May)

Date Brightness Start Highest point End Pass type
(mag) Time Alt. Az. Time Alt. Az. Time Alt. Az.
21 May - 06:28:16 10° S 06:30:39 16° SE 06:33:08 10° ESE visible
21 May - 08:05:57 10° SW 08:09:40 44° SSE 08:13:35 10° E visible
21 May - 09:45:11 10° W 09:49:09 62° S 09:53:19 10° ESE visible
21 May - 11:24:45 10° W 11:28:37 39° SSW 11:32:39 10° SE daylight
21 May - 13:05:23 10° WSW 13:07:38 14° SW 13:09:56 10° S daylight
22 May - 06:20:57 10° SSW 06:23:43 19° SE 06:26:35 10° E visible
22 May - 07:59:04 10° WSW 08:02:49 49° SSE 08:06:47 10° E visible
22 May - 09:38:23 10° W 09:42:19 60° S 09:46:29 10° ESE visible
22 May - 11:18:01 10° W 11:21:44 34° SSW 11:25:39 10° SE daylight
22 May - 12:59:24 10° WSW 13:00:40 11° SW 13:01:57 10° SSW daylight
23 May - 06:13:45 10° SSW 06:16:47 23° SSE 06:19:55 10° E visible
23 May - 07:52:11 10° WSW 07:55:58 53° SSE 07:59:57 10° E visible
23 May - 09:31:34 10° W 09:35:29 58° S 09:39:37 10° ESE visible
23 May - 11:11:16 10° W 11:14:50 29° SSW 11:18:34 10° SSE daylight
24 May - 06:06:36 10° SSW 06:09:50 27° SSE 06:13:11 10° E visible
24 May - 07:45:19 10° WSW 07:49:06 57° S 07:53:05 10° E visible
24 May - 09:24:44 10° W 09:28:36 54° SSW 09:32:41 10° ESE visible
24 May - 11:04:31 10° W 11:07:53 25° SSW 11:11:23 10° SSE daylight
25 May - 05:59:30 10° SW 06:02:52 31° SSE 06:06:23 10° E visible
25 May - 07:38:24 10° WSW 07:42:12 60° S 07:46:12 10° E visible
25 May - 09:17:52 10° W 09:21:42 49° SSW 09:25:44 10° ESE visible
25 May - 10:57:49 10° W 11:00:54 21° SSW 11:04:05 10° SSE daylight
26 May - 04:15:46 10° SSE 04:17:03 11° SE 04:18:20 10° ESE daylight
26 May - 05:52:26 10° SW 05:55:54 36° SSE 05:59:31 10° E visible
26 May - 07:31:30 10° WSW 07:35:17 61° S 07:39:17 10° E visible
26 May - 09:11:00 10° W 09:14:45 44° SSW 09:18:43 10° SE visible
26 May - 10:51:10 10° WSW 10:53:52 17° SW 10:56:38 10° S daylight
27 May - 04:07:55 10° S 04:09:57 14° SE 04:12:02 10° ESE daylight
27 May - 05:45:23 10° SW 05:48:55 41° SSE 05:52:36 10° E visible
27 May - 07:24:34 10° W 07:28:21 61° S 07:32:19 10° E visible
27 May - 09:04:06 10° W 09:07:46 39° SSW 09:11:38 10° SE visible
27 May - 10:44:39 10° WSW 10:46:47 14° SW 10:48:59 10° S daylight
28 May - 04:00:22 10° S 04:02:52 17° SE 04:05:25 10° ESE daylight
28 May - 05:38:20 10° WSW 05:41:55 46° SSE 05:45:39 10° E visible
28 May - 07:17:36 10° W 07:21:22 60° S 07:25:20 10° ESE visible
28 May - 08:57:11 10° W 09:00:45 34° SSW 09:04:29 10° SE visible
28 May - 10:38:30 10° WSW 10:39:40 11° SW 10:40:51 10° SSW daylight
29 May - 03:52:57 10° SSW 03:55:46 21° SSE 03:58:39 10° E daylight
29 May - 05:31:17 10° WSW 05:34:54 51° SSE 05:38:41 10° E visible
29 May - 07:10:38 10° W 07:14:22 57° S 07:18:18 10° ESE visible
29 May - 08:50:17 10° W 08:53:42 29° SSW 08:57:15 10° SSE visible
30 May - 03:45:37 10° SSW 03:48:40 25° SSE 03:51:46 10° E daylight
30 May - 05:24:14 10° WSW 05:27:52 55° S 05:31:40 10° E visible
30 May - 07:03:38 10° W 07:07:20 53° S 07:11:14 10° ESE visible
30 May - 08:43:23 10° W 08:46:36 25° SSW 08:49:56 10° SSE visible
